SES-4

Last updated on Sun Jun 21 2026 00:03:05 GMT+0000 (Coordinated Universal Time)

1 38087U 12007A 26171.10245006 -.00000174 00000+0 00000+0 0 9992 2 38087 0.0254 31.8182 0002775 77.4924 173.8905 1.00268006 52256
UTC large
Height (km)
Speed (km/s)
/
Latitude / Longitude
Inclination (degrees)
Orbital Period (minutes)
Azimuth
Elevation
Range (km)
Doppler Factor

Next 0 passes for location: London (51.5072 / 0.1276)

No passes found over London.
SES-4